TimeCST,TemperatureF,Dew PointF,Humidity,Sea Level PressureIn,VisibilityMPH,Wind Direction,Wind SpeedMPH,Gust SpeedMPH,PrecipitationIn,Events,Conditions,WindDirDegrees,DateUTC
12:12 AM,2.8,-1.8,81,30.16,10.0,Calm,Calm,-,N/A,,Clear,0,2014-02-08 06:12:00
12:32 AM,3.6,-1.5,80,30.16,10.0,SE,3.5,-,N/A,,Clear,130,2014-02-08 06:32:00
12:52 AM,0.5,-4.9,78,30.16,10.0,Calm,Calm,-,N/A,,Clear,0,2014-02-08 06:52:00
1:12 AM,-2.0,-7.1,79,30.16,10.0,SE,3.5,-,N/A,,Clear,130,2014-02-08 07:12:00
1:32 AM,-2.2,-7.2,79,30.15,10.0,Calm,Calm,-,N/A,,Clear,0,2014-02-08 07:32:00
1:52 AM,-2.6,-8.3,76,30.15,10.0,Calm,Calm,-,N/A,,Clear,0,2014-02-08 07:52:00
2:12 AM,-3.1,-8.5,78,30.15,10.0,Calm,Calm,-,N/A,,Clear,0,2014-02-08 08:12:00
2:32 AM,-4.0,-9.8,76,30.15,10.0,Calm,Calm,-,N/A,,Clear,0,2014-02-08 08:32:00
2:52 AM,-3.1,-8.5,78,30.14,10.0,Calm,Calm,-,N/A,,Clear,0,2014-02-08 08:52:00
3:12 AM,-4.0,-9.8,76,30.14,10.0,Calm,Calm,-,N/A,,Clear,0,2014-02-08 09:12:00
3:32 AM,-4.9,-10.7,76,30.14,10.0,Calm,Calm,-,N/A,,Clear,0,2014-02-08 09:32:00
3:52 AM,-2.6,-8.0,78,30.14,10.0,Calm,Calm,-,N/A,,Clear,0,2014-02-08 09:52:00
4:12 AM,-3.6,-9.2,77,30.14,10.0,Calm,Calm,-,N/A,,Clear,0,2014-02-08 10:12:00
4:32 AM,-5.4,-11.4,76,30.14,10.0,Calm,Calm,-,N/A,,Clear,0,2014-02-08 10:32:00
4:52 AM,-5.8,-11.9,75,30.13,10.0,Calm,Calm,-,N/A,,Clear,0,2014-02-08 10:52:00
5:12 AM,-6.0,-12.1,75,30.13,10.0,Calm,Calm,-,N/A,,Clear,0,2014-02-08 11:12:00
5:32 AM,-6.0,-12.3,74,30.12,10.0,Calm,Calm,-,N/A,,Clear,0,2014-02-08 11:32:00
5:52 AM,-7.1,-13.4,74,30.12,10.0,Calm,Calm,-,N/A,,Clear,0,2014-02-08 11:52:00
6:12 AM,-4.2,-9.6,78,30.12,10.0,Calm,Calm,-,N/A,,Clear,0,2014-02-08 12:12:00
6:32 AM,-3.6,-9.0,78,30.12,10.0,Calm,Calm,-,N/A,,Clear,0,2014-02-08 12:32:00
6:52 AM,-4.2,-9.9,76,30.12,10.0,Calm,Calm,-,N/A,,Clear,0,2014-02-08 12:52:00
7:12 AM,-1.5,-7.1,77,30.12,10.0,Calm,Calm,-,N/A,,Clear,0,2014-02-08 13:12:00
7:32 AM,-2.0,-7.4,78,30.13,10.0,Calm,Calm,-,N/A,,Clear,0,2014-02-08 13:32:00
7:52 AM,-0.8,-6.2,78,30.14,10.0,Calm,Calm,-,N/A,,Clear,0,2014-02-08 13:52:00
8:12 AM,-0.8,-6.3,77,30.14,10.0,Calm,Calm,-,N/A,,Clear,0,2014-02-08 14:12:00
8:32 AM,0.1,-5.3,78,30.13,10.0,Calm,Calm,-,N/A,,Clear,0,2014-02-08 14:32:00
8:52 AM,0.5,-4.9,78,30.13,10.0,South,3.5,-,N/A,,Clear,170,2014-02-08 14:52:00
9:12 AM,1.9,-3.6,77,30.13,10.0,Calm,Calm,-,N/A,,Clear,0,2014-02-08 15:12:00
9:32 AM,2.3,-3.6,76,30.13,10.0,SE,3.5,-,N/A,,Mostly Cloudy,140,2014-02-08 15:32:00
9:52 AM,3.0,-3.1,76,30.13,10.0,Calm,Calm,-,N/A,,Overcast,0,2014-02-08 15:52:00
10:12 AM,3.7,-2.4,76,30.12,5.0,Calm,Calm,-,N/A,,Haze,0,2014-02-08 16:12:00
10:32 AM,5.0,-1.3,75,30.12,7.0,Calm,Calm,-,N/A,Snow,Light Snow,0,2014-02-08 16:32:00
10:52 AM,5.9,-0.4,75,30.12,5.0,SE,3.5,-,N/A,Snow,Light Snow,140,2014-02-08 16:52:00
11:12 AM,6.6,0.1,75,30.12,7.0,Calm,Calm,-,N/A,,Overcast,0,2014-02-08 17:12:00
11:32 AM,8.1,1.2,74,30.12,10.0,Calm,Calm,-,N/A,,Overcast,0,2014-02-08 17:32:00
11:52 AM,9.1,2.1,73,30.11,10.0,Calm,Calm,-,N/A,,Overcast,0,2014-02-08 17:52:00
12:12 PM,10.0,2.8,73,30.10,7.0,Calm,Calm,-,N/A,,Overcast,0,2014-02-08 18:12:00
12:32 PM,10.9,3.2,71,30.10,10.0,Calm,Calm,-,N/A,,Overcast,0,2014-02-08 18:32:00
12:52 PM,11.3,3.6,71,30.10,10.0,Calm,Calm,-,N/A,,Overcast,0,2014-02-08 18:52:00
1:12 PM,12.4,4.3,70,30.09,7.0,Calm,Calm,-,N/A,,Overcast,0,2014-02-08 19:12:00
1:32 PM,13.1,4.8,70,30.09,10.0,Calm,Calm,-,N/A,,Overcast,0,2014-02-08 19:32:00
1:52 PM,13.8,5.5,70,30.09,10.0,Calm,Calm,-,N/A,,Overcast,0,2014-02-08 19:52:00
2:12 PM,14.0,5.4,69,30.09,10.0,Calm,Calm,-,N/A,,Overcast,0,2014-02-08 20:12:00
2:32 PM,14.9,5.9,68,30.09,10.0,Calm,Calm,-,N/A,,Overcast,0,2014-02-08 20:32:00
2:52 PM,14.9,6.3,69,30.10,10.0,Calm,Calm,-,N/A,,Overcast,0,2014-02-08 20:52:00
3:12 PM,15.4,5.9,66,30.10,10.0,Calm,Calm,-,N/A,,Overcast,0,2014-02-08 21:12:00
3:32 PM,16.2,6.6,66,30.10,10.0,Calm,Calm,-,N/A,,Overcast,0,2014-02-08 21:32:00
3:52 PM,16.2,6.8,67,30.10,10.0,Calm,Calm,-,N/A,,Overcast,0,2014-02-08 21:52:00
4:12 PM,16.3,7.2,67,30.10,10.0,Calm,Calm,-,N/A,,Overcast,0,2014-02-08 22:12:00
4:32 PM,16.2,7.3,68,30.10,10.0,Calm,Calm,-,N/A,,Overcast,0,2014-02-08 22:32:00
4:52 PM,16.3,7.7,69,30.10,10.0,Calm,Calm,-,N/A,,Overcast,0,2014-02-08 22:52:00
5:12 PM,16.3,7.7,69,30.11,10.0,Calm,Calm,-,N/A,,Overcast,0,2014-02-08 23:12:00
5:32 PM,16.3,7.7,69,30.12,10.0,Calm,Calm,-,N/A,,Overcast,0,2014-02-08 23:32:00
5:52 PM,15.8,7.7,70,30.12,10.0,Calm,Calm,-,N/A,,Overcast,0,2014-02-08 23:52:00
6:12 PM,16.2,8.2,71,30.13,10.0,Calm,Calm,-,N/A,,Overcast,0,2014-02-09 00:12:00
6:32 PM,15.6,8.4,73,30.13,10.0,Calm,Calm,-,N/A,,Overcast,0,2014-02-09 00:32:00
6:52 PM,15.8,8.2,72,30.13,10.0,Calm,Calm,-,N/A,,Overcast,0,2014-02-09 00:52:00
7:12 PM,14.9,7.9,74,30.13,10.0,Calm,Calm,-,N/A,,Overcast,0,2014-02-09 01:12:00
7:32 PM,14.9,7.7,73,30.14,10.0,Calm,Calm,-,N/A,,Overcast,0,2014-02-09 01:32:00
7:52 PM,14.9,7.7,73,30.14,10.0,Calm,Calm,-,N/A,,Overcast,0,2014-02-09 01:52:00
8:12 PM,14.9,7.7,73,30.15,10.0,Calm,Calm,-,N/A,,Overcast,0,2014-02-09 02:12:00
8:32 PM,14.9,8.4,76,30.15,10.0,Calm,Calm,-,N/A,,Overcast,0,2014-02-09 02:32:00
8:52 PM,14.9,8.6,76,30.15,10.0,Calm,Calm,-,N/A,,Overcast,0,2014-02-09 02:52:00
9:12 PM,15.3,9.5,78,30.15,7.0,Calm,Calm,-,N/A,,Overcast,0,2014-02-09 03:12:00
9:32 PM,15.8,10.2,79,30.15,10.0,Calm,Calm,-,N/A,,Overcast,0,2014-02-09 03:32:00
9:52 PM,15.8,9.9,77,30.14,10.0,West,3.5,-,N/A,,Overcast,280,2014-02-09 03:52:00
10:12 PM,15.8,9.5,76,30.15,10.0,WNW,3.5,-,N/A,,Overcast,290,2014-02-09 04:12:00
10:32 PM,15.8,9.3,76,30.15,10.0,West,3.5,-,N/A,,Overcast,280,2014-02-09 04:32:00
10:52 PM,15.8,9.3,76,30.15,10.0,West,4.6,-,N/A,,Overcast,280,2014-02-09 04:52:00
11:12 PM,15.8,9.1,75,30.15,10.0,WNW,5.8,-,N/A,,Overcast,290,2014-02-09 05:12:00
11:32 PM,15.8,8.6,73,30.16,10.0,NW,5.8,-,N/A,,Overcast,310,2014-02-09 05:32:00
11:52 PM,15.4,7.3,70,30.15,10.0,NW,5.8,-,N/A,,Overcast,320,2014-02-09 05:52:00